Volver al catálogo

COSMOS 1275 DEB

ActivoPO
NORAD 42103·DEBRIS·🇷🇺 Russia

Lanzado Jun 4, 1981 desde Plesetsk Cosmodrome

Loading…

Próximos Pases (próximas 24 horas)

TLE

ActualizadoSource: Space-Track

Época: Sep 14, 2026, 05:09 UTC

1 42103U 81053PP  26257.21526139  .00001671  00000-0  82501-3 0  9992
2 42103  83.1729 234.4780 0028928 144.9579 215.3512 14.16678258657519

Sigue COSMOS 1275 DEB en tiempo real con AllMySat

Download on the App Store